Flag for U.S.A. Weather past 2 weeks in Chattanooga, Tennessee, U.S.A.

Now
38 °F

Passing clouds.


Feels Like: 32 °F
Forecast: 26 / 36 °F
Wind: 8 mph from Northeast

Location: Lovell Field

Current Time: Feb 27, 2015 at 6:24:24 PM

Latest Report: Feb 27, 2015 at 5:53 PM


Visibility: 10 mi

Pressure: 30.46 "Hg

Humidity: 43%

Dew point: 17 °F

Location of ChattanoogaLocation

Historic Weather in Chattanooga — Graph

°F

Chattanooga temperature yesterday

Maximum temperature yesterday: 42 °F (at 3:53 PM)
Minimum temperature yesterday: 27 °F (at 3:53 AM)
Average temperature yesterday: 34 °F

Past Weeks' High & Low Weather Summary

 TemperatureHumidityPressure
High59 °F (Feb 14, 3:53 PM)100% (Feb 22, 4:53 AM)30.50 "Hg (Feb 22, 4:53 AM)
Low8 °F (Feb 19, 6:53 AM)24% (Feb 13, 3:53 PM)29.78 "Hg (Feb 16, 7:53 PM)
Average31 °F63%30.18 "Hg
* Reported Feb 12 4:53 PM — Feb 27 4:53 PM, Chattanooga, Weather by CustomWeather, © 2015

Note: Actual official high and low records may vary slightly from our data, if they occured in-between our weather recording intervals... More about our weather records

Advertising

Chattanooga weather history for previous 24 hours

 ConditionsComfort  
Time TempWeatherWind HumidityBarometerVisibility
4:53 PM
Fri, Feb 27
40 °FPassing clouds.13 mph36%30.46 "Hg10 mi
3:53 PM40 °FPassing clouds.8 mph40%30.46 "Hg10 mi
2:53 PM40 °FSunny.12 mph41%30.46 "Hg10 mi
1:53 PM37 °FSunny.8 mph48%30.47 "Hg10 mi
12:53 PM35 °FScattered clouds.8 mph50%30.49 "Hg10 mi
11:53 AM33 °FScattered clouds.10 mph54%30.50 "Hg10 mi
10:53 AM32 °FScattered clouds.9 mph56%30.50 "Hg10 mi
9:53 AM30 °FBroken clouds.10 mph61%30.49 "Hg10 mi
8:53 AM29 °FBroken clouds.12 mph64%30.47 "Hg10 mi
7:53 AM29 °FPartly sunny.13 mph66%30.44 "Hg10 mi
6:53 AM30 °FMostly cloudy.13 mph66%30.40 "Hg7 mi
5:53 AM30 °FOvercast.14 mph72%30.36 "Hg7 mi
4:53 AM31 °FOvercast.14 mph69%30.33 "Hg10 mi
3:53 AM31 °FPassing clouds.8 mph69%30.31 "Hg10 mi
2:53 AM30 °FClear.8 mph72%30.30 "Hg10 mi
1:53 AM31 °FClear.No wind69%30.27 "Hg10 mi
12:53 AM32 °FClear.7 mph69%30.26 "Hg10 mi
11:53 PM
Thu, Feb 26
33 °FClear.5 mph72%30.25 "Hg10 mi
10:53 PM32 °FClear.No wind82%30.22 "Hg10 mi
9:53 PM29 °FClear.3 mph89%30.21 "Hg10 mi
8:53 PM32 °FClear.No wind79%30.17 "Hg10 mi
7:53 PM35 °FPassing clouds.No wind72%30.16 "Hg10 mi
6:53 PM38 °FPartly cloudy.5 mph65%30.12 "Hg10 mi
Weather by CustomWeather, © 2015

See weather overviewHow to use our weather pages